Weather History for Mullan Pass, ID

Change the Weather History Date:

Friday, July 12, 2013

  Actual Average (K3TH) Record (K3TH)
Temperature  
Mean Temperature 56 °F -  
Max Temperature 64 °F 82 °F 102 °F (2002)
Min Temperature 50 °F 56 °F 55 °F (1996)
Degree Days  
Heating Degree Days 8    
Growing Degree Days 6 (Base 50)    
Moisture  
Dew Point 27 °F    
Average Humidity 33    
Maximum Humidity 40    
Minimum Humidity 26    
Precipitation  
Precipitation 0.00 in - - ()
Sea Level Pressure  
Sea Level Pressure 29.78 in    
Wind  
Wind Speed 5 mph (WSW)    
Max Wind Speed 7 mph    
Max Gust Speed -    
Visibility 10 miles    
Events      
Averages and records for this station are not official NWS values.
T = Trace of Precipitation, MM = Missing Value Source: NWS Daily Summary

Daily Weather History Graph

Daily Weather History Graph

Search for Another Location

Airport:

Trip Planner

Search our weather history database for the weather conditions in past years. The results will help you decide how hot, cold, wet, or windy it might be!

Date:

Astronomy

Jul. 12, 2013 Rise Set
Actual Time 4:58 AM PDT 8:37 PM PDT
Civil Twilight 4:19 AM PDT 9:16 PM PDT
Nautical Twilight 3:27 AM PDT 10:08 PM PDT
Astronomical Twilight 2:13 AM PDT 11:20 PM PDT
Moon 9:41 AM PDT (7/12) 10:26 PM PDT (7/12)
Length of Visible Light 16h 57m
Length of Day
15h 39m
Waxing Crescent, 18% of the Moon is Illuminated
Jul 12
Waxing Crescent
Jul 15
First Quarter
Jul 22
Full
Jul 29
Last Quarter
Aug 6
New

Hourly Weather History & Observations

Time (PDT) Temp. Dew Point Humidity Pressure Visibility Wind Dir Wind Speed Gust Speed Precip Events Conditions
12:53 AM 52.0 °F 18.0 °F 26% 29.76 in 10.0 mi Variable 4.6 mph - N/A   Clear
1:53 AM 52.0 °F 19.0 °F 27% 29.75 in 10.0 mi West 4.6 mph - N/A   Clear
2:53 AM 51.1 °F 18.0 °F 27% 29.75 in 10.0 mi SW 6.9 mph - N/A   Clear
3:53 AM 51.1 °F 17.1 °F 26% 29.75 in 10.0 mi SW 5.8 mph - N/A   Clear
4:53 AM 50.0 °F 19.0 °F 29% 29.75 in 10.0 mi SW 5.8 mph - N/A   Clear
5:53 AM 52.0 °F 21.9 °F 31% 29.75 in 10.0 mi SW 6.9 mph - N/A   Clear
6:53 AM 53.1 °F 24.1 °F 32% 29.76 in 10.0 mi Variable 5.8 mph - N/A   Clear
7:53 AM 53.1 °F 25.0 °F 34% 29.78 in 10.0 mi Variable 3.5 mph - N/A   Clear
8:53 AM 55.0 °F 28.9 °F 37% 29.78 in 10.0 mi Variable 3.5 mph - N/A   Overcast
9:53 AM 57.9 °F 28.9 °F 33% 29.77 in 10.0 mi Calm Calm - N/A   Partly Cloudy
10:53 AM 59.0 °F 30.0 °F 33% 29.78 in 10.0 mi Variable 3.5 mph - N/A   Clear
11:53 AM 61.0 °F 30.9 °F 32% 29.77 in 10.0 mi Variable 4.6 mph - N/A   Partly Cloudy
12:53 PM 61.0 °F 28.9 °F 30% 29.77 in 10.0 mi Variable 6.9 mph - N/A   Clear
1:53 PM 62.1 °F 33.1 °F 34% 29.77 in 10.0 mi Variable 6.9 mph - N/A   Scattered Clouds
2:53 PM 63.0 °F 33.1 °F 33% 29.78 in 10.0 mi Variable 6.9 mph - N/A   Clear
3:53 PM 63.0 °F 33.1 °F 33% 29.77 in 10.0 mi Variable 5.8 mph - N/A   Clear
4:53 PM 63.0 °F 35.1 °F 35% 29.77 in 10.0 mi Variable 4.6 mph - N/A   Clear
5:53 PM 60.1 °F 32.0 °F 35% 29.77 in 10.0 mi Variable 3.5 mph - N/A   Clear
6:53 PM 55.0 °F 30.0 °F 38% 29.80 in 10.0 mi West 5.8 mph - N/A   Clear
7:53 PM 54.0 °F 30.0 °F 40% 29.80 in 10.0 mi NW 4.6 mph - N/A   Scattered Clouds
8:53 PM 53.1 °F 28.0 °F 38% 29.81 in 10.0 mi Calm Calm - N/A   Overcast
9:53 PM 53.1 °F 24.1 °F 32% 29.81 in 10.0 mi SW 4.6 mph - 0.00 in   Overcast
10:53 PM 52.0 °F 26.1 °F 37% 29.82 in 10.0 mi SW 6.9 mph - N/A   Overcast
11:53 PM 51.1 °F 27.0 °F 39% 29.83 in 10.0 mi SW 5.8 mph - N/A   Overcast